Location: Usti nad Labem
(50.6670°N, 14.0330°E)
Time: 02:26:28

ISS - Visible Passes

Search period start: 26 October 2016 00:00
Search period end: 04 November 2016 23:00
Orbit: 399 x 408 km, 51.6° (Epoch: 26 October)

Date Brightness Start Highest point End Pass type
(mag) Time Alt. Az. Time Alt. Az. Time Alt. Az.
01 Nov -0.2 06:01:02 10° SSE 06:02:37 13° SE 06:04:11 10° ESE visible
03 Nov -1.0 05:51:06 10° SSW 05:53:45 23° SE 05:56:26 10° E visible
04 Nov -0.5 04:59:29 10° S 05:01:28 15° SE 05:03:26 10° ESE visible
